Time,TemperatureF,DewpointF,PressureIn,WindDirection,WindDirectionDegrees,WindSpeedMPH,WindSpeedGustMPH,Humidity,HourlyPrecipIn,Conditions,Clouds,dailyrainin,SoftwareType,DateUTC
2013-02-11 00:03:00,38.3,26.0,29.82,WSW,246,17.0,28.0,61,0.00,,,0.35,weatherlink.com 1.10,2013-02-11 06:03:00,
2013-02-11 00:18:00,38.3,26.0,29.83,SW,221,9.0,24.0,62,0.00,,,0.35,weatherlink.com 1.10,2013-02-11 06:18:00,
2013-02-11 00:33:00,37.9,27.0,29.84,WSW,247,7.0,18.0,64,0.00,,,0.00,weatherlink.com 1.10,2013-02-11 06:33:00,
2013-02-11 00:48:00,38.0,26.0,29.84,SW,234,11.0,25.0,63,0.00,,,0.00,weatherlink.com 1.10,2013-02-11 06:48:00,
2013-02-11 01:03:00,37.7,26.0,29.85,SW,229,11.0,24.0,63,0.00,,,0.00,weatherlink.com 1.10,2013-02-11 07:03:00,
2013-02-11 01:18:00,37.1,26.0,29.86,West,272,15.0,24.0,64,0.00,,,0.00,weatherlink.com 1.10,2013-02-11 07:18:00,
2013-02-11 01:33:00,36.8,26.0,29.87,West,261,16.0,22.0,64,0.00,,,0.00,weatherlink.com 1.10,2013-02-11 07:33:00,
2013-02-11 01:48:00,36.2,25.0,29.88,West,274,8.0,22.0,64,0.00,,,0.00,weatherlink.com 1.10,2013-02-11 07:48:00,
2013-02-11 02:03:00,36.1,25.0,29.89,West,281,9.0,22.0,64,0.00,,,0.00,weatherlink.com 1.10,2013-02-11 08:03:00,
2013-02-11 02:18:00,36.0,26.0,29.89,West,264,9.0,17.0,66,0.00,,,0.00,weatherlink.com 1.10,2013-02-11 08:18:00,
2013-02-11 02:33:00,36.1,26.0,29.89,SW,229,9.0,17.0,66,0.00,,,0.00,weatherlink.com 1.10,2013-02-11 08:33:00,
2013-02-11 02:48:00,36.3,26.0,29.89,WSW,241,9.0,17.0,66,0.00,,,0.00,weatherlink.com 1.10,2013-02-11 08:48:00,
2013-02-11 03:03:00,36.1,26.0,29.90,SW,233,8.0,20.0,67,0.00,,,0.00,weatherlink.com 1.10,2013-02-11 09:03:00,
2013-02-11 03:18:00,36.2,26.0,29.90,West,280,6.0,21.0,67,0.00,,,0.00,weatherlink.com 1.10,2013-02-11 09:18:00,
2013-02-11 03:33:00,36.0,26.0,29.90,WSW,258,12.0,23.0,68,0.00,,,0.00,weatherlink.com 1.10,2013-02-11 09:33:00,
2013-02-11 03:48:00,35.7,26.0,29.90,West,267,10.0,21.0,68,0.00,,,0.00,weatherlink.com 1.10,2013-02-11 09:48:00,
2013-02-11 04:03:00,35.6,26.0,29.91,WSW,250,14.0,19.0,69,0.00,,,0.00,weatherlink.com 1.10,2013-02-11 10:03:00,
2013-02-11 04:18:00,35.6,27.0,29.91,West,263,8.0,19.0,70,0.00,,,0.00,weatherlink.com 1.10,2013-02-11 10:18:00,
2013-02-11 04:33:00,35.3,27.0,29.91,West,261,8.0,19.0,71,0.00,,,0.00,weatherlink.com 1.10,2013-02-11 10:33:00,
2013-02-11 04:48:00,35.2,27.0,29.92,WSW,245,8.0,21.0,71,0.00,,,0.00,weatherlink.com 1.10,2013-02-11 10:48:00,
2013-02-11 05:03:00,34.9,26.0,29.92,WSW,245,18.0,24.0,71,0.00,,,0.00,weatherlink.com 1.10,2013-02-11 11:03:00,
2013-02-11 05:18:00,34.6,26.0,29.93,WNW,282,7.0,16.0,72,0.00,,,0.00,weatherlink.com 1.10,2013-02-11 11:18:00,
2013-02-11 05:33:00,34.2,26.0,29.95,West,263,6.0,15.0,72,0.00,,,0.00,weatherlink.com 1.10,2013-02-11 11:33:00,
2013-02-11 05:48:00,34.0,26.0,29.95,West,262,8.0,18.0,72,0.00,,,0.00,weatherlink.com 1.10,2013-02-11 11:48:00,
2013-02-11 06:03:00,33.7,26.0,29.95,WSW,254,6.0,14.0,74,0.00,,,0.00,weatherlink.com 1.10,2013-02-11 12:03:00,
2013-02-11 06:18:00,33.3,27.0,29.95,West,261,5.0,12.0,76,0.00,,,0.00,weatherlink.com 1.10,2013-02-11 12:18:00,
2013-02-11 06:34:00,33.0,27.0,29.96,West,261,6.0,12.0,77,0.00,,,0.00,weatherlink.com 1.10,2013-02-11 12:34:00,
2013-02-11 06:49:00,33.0,27.0,29.97,West,281,5.0,14.0,77,0.00,,,0.00,weatherlink.com 1.10,2013-02-11 12:49:00,
2013-02-11 07:04:00,33.0,26.0,29.98,SW,225,6.0,14.0,76,0.00,,,0.00,weatherlink.com 1.10,2013-02-11 13:04:00,
2013-02-11 07:19:00,33.1,26.0,30.00,West,264,7.0,16.0,76,0.00,,,0.00,weatherlink.com 1.10,2013-02-11 13:19:00,
2013-02-11 07:34:00,33.5,27.0,30.01,WSW,248,5.0,13.0,76,0.00,,,0.00,weatherlink.com 1.10,2013-02-11 13:34:00,
2013-02-11 07:49:00,34.2,27.0,30.02,WSW,249,8.0,18.0,74,0.00,,,0.00,weatherlink.com 1.10,2013-02-11 13:49:00,
2013-02-11 08:04:00,34.8,27.0,30.03,West,268,5.0,20.0,73,0.00,,,0.00,weatherlink.com 1.10,2013-02-11 14:04:00,
2013-02-11 08:19:00,35.3,27.0,30.04,WSW,248,7.0,20.0,72,0.00,,,0.00,weatherlink.com 1.10,2013-02-11 14:19:00,
2013-02-11 08:34:00,35.7,27.0,30.04,West,264,8.0,18.0,71,0.00,,,0.00,weatherlink.com 1.10,2013-02-11 14:34:00,
2013-02-11 08:49:00,36.1,27.0,30.04,WNW,284,11.0,17.0,69,0.00,,,0.00,weatherlink.com 1.10,2013-02-11 14:49:00,
2013-02-11 09:04:00,36.7,26.0,30.05,West,269,21.0,22.0,66,0.00,,,0.00,weatherlink.com 1.10,2013-02-11 15:04:00,
2013-02-11 09:19:00,36.9,26.0,30.05,WNW,298,9.0,22.0,65,0.00,,,0.00,weatherlink.com 1.10,2013-02-11 15:19:00,
2013-02-11 09:34:00,37.6,26.0,30.06,West,275,10.0,20.0,64,0.00,,,0.00,weatherlink.com 1.10,2013-02-11 15:34:00,
2013-02-11 09:49:00,38.4,27.0,30.07,NW,316,10.0,17.0,64,0.00,,,0.00,weatherlink.com 1.10,2013-02-11 15:49:00,
2013-02-11 10:04:00,38.6,27.0,30.08,NW,304,8.0,20.0,63,0.00,,,0.00,weatherlink.com 1.10,2013-02-11 16:04:00,
2013-02-11 10:20:00,39.9,27.0,30.08,WNW,292,10.0,18.0,61,0.00,,,0.00,weatherlink.com 1.10,2013-02-11 16:20:00,
2013-02-11 10:35:00,40.2,28.0,30.08,West,271,10.0,23.0,62,0.00,,,0.00,weatherlink.com 1.10,2013-02-11 16:35:00,
2013-02-11 10:50:00,40.9,28.0,30.09,WNW,285,9.0,17.0,60,0.00,,,0.00,weatherlink.com 1.10,2013-02-11 16:50:00,
2013-02-11 11:05:00,41.1,28.0,30.08,West,280,8.0,18.0,59,0.00,,,0.00,weatherlink.com 1.10,2013-02-11 17:05:00,
2013-02-11 11:20:00,41.9,29.0,30.09,NW,315,11.0,18.0,61,0.00,,,0.00,weatherlink.com 1.10,2013-02-11 17:20:00,
2013-02-11 11:35:00,42.1,29.0,30.09,WSW,253,18.0,18.0,59,0.00,,,0.00,weatherlink.com 1.10,2013-02-11 17:35:00,
2013-02-11 11:50:00,42.6,29.0,30.09,SW,223,14.0,16.0,58,0.00,,,0.00,weatherlink.com 1.10,2013-02-11 17:50:00,
2013-02-11 12:05:00,43.8,29.0,30.09,WNW,293,7.0,17.0,56,0.00,,,0.00,weatherlink.com 1.10,2013-02-11 18:05:00,
2013-02-11 12:20:00,44.9,30.0,30.08,West,269,5.0,15.0,56,0.00,,,0.00,weatherlink.com 1.10,2013-02-11 18:20:00,
2013-02-11 12:35:00,45.3,30.0,30.08,WNW,283,7.0,14.0,56,0.00,,,0.00,weatherlink.com 1.10,2013-02-11 18:35:00,
2013-02-11 12:50:00,45.6,29.0,30.08,SSW,213,11.0,14.0,53,0.00,,,0.00,weatherlink.com 1.10,2013-02-11 18:50:00,
2013-02-11 13:05:00,45.8,29.0,30.08,West,263,5.0,16.0,52,0.00,,,0.00,weatherlink.com 1.10,2013-02-11 19:05:00,
2013-02-11 13:20:00,46.6,30.0,30.08,West,267,16.0,17.0,53,0.00,,,0.00,weatherlink.com 1.10,2013-02-11 19:20:00,
2013-02-11 13:35:00,46.5,29.0,30.08,WSW,248,8.0,17.0,51,0.00,,,0.00,weatherlink.com 1.10,2013-02-11 19:35:00,
2013-02-11 13:50:00,47.1,30.0,30.07,WSW,241,8.0,19.0,51,0.00,,,0.00,weatherlink.com 1.10,2013-02-11 19:50:00,
2013-02-11 14:05:00,47.2,29.0,30.07,WNW,288,11.0,19.0,49,0.00,,,0.00,weatherlink.com 1.10,2013-02-11 20:05:00,
2013-02-11 14:20:00,47.3,28.0,30.07,West,271,5.0,22.0,48,0.00,,,0.00,weatherlink.com 1.10,2013-02-11 20:20:00,
2013-02-11 14:35:00,47.6,29.0,30.07,WNW,286,6.0,14.0,48,0.00,,,0.00,weatherlink.com 1.10,2013-02-11 20:35:00,
2013-02-11 14:50:00,47.9,29.0,30.07,WSW,254,9.0,17.0,48,0.00,,,0.00,weatherlink.com 1.10,2013-02-11 20:50:00,
2013-02-11 15:05:00,47.6,28.0,30.07,WSW,250,5.0,18.0,47,0.00,,,0.00,weatherlink.com 1.10,2013-02-11 21:05:00,
2013-02-11 15:20:00,48.2,28.0,30.07,NW,311,6.0,17.0,46,0.00,,,0.00,weatherlink.com 1.10,2013-02-11 21:20:00,
2013-02-11 15:35:00,48.1,28.0,30.07,WNW,289,8.0,12.0,45,0.00,,,0.00,weatherlink.com 1.10,2013-02-11 21:35:00,
2013-02-11 15:50:00,47.8,28.0,30.07,West,281,7.0,19.0,46,0.00,,,0.00,weatherlink.com 1.10,2013-02-11 21:50:00,
2013-02-11 16:05:00,47.6,28.0,30.07,West,268,6.0,15.0,46,0.00,,,0.00,weatherlink.com 1.10,2013-02-11 22:05:00,
2013-02-11 16:20:00,47.7,28.0,30.07,WNW,293,11.0,13.0,46,0.00,,,0.00,weatherlink.com 1.10,2013-02-11 22:20:00,
2013-02-11 16:35:00,47.3,27.0,30.08,West,270,5.0,11.0,46,0.00,,,0.00,weatherlink.com 1.10,2013-02-11 22:35:00,
2013-02-11 16:50:00,46.8,27.0,30.08,West,266,7.0,11.0,46,0.00,,,0.00,weatherlink.com 1.10,2013-02-11 22:50:00,
2013-02-11 17:05:00,46.2,27.0,30.08,WSW,244,5.0,15.0,47,0.00,,,0.00,weatherlink.com 1.10,2013-02-11 23:05:00,
2013-02-11 17:20:00,45.6,26.0,30.08,WNW,289,5.0,10.0,47,0.00,,,0.00,weatherlink.com 1.10,2013-02-11 23:20:00,
2013-02-11 17:35:00,44.3,26.0,30.08,West,261,3.0,9.0,49,0.00,,,0.00,weatherlink.com 1.10,2013-02-11 23:35:00,
2013-02-11 17:50:00,43.2,26.0,30.08,West,269,3.0,5.0,52,0.00,,,0.00,weatherlink.com 1.10,2013-02-11 23:50:00,
2013-02-11 18:05:00,42.4,26.0,30.09,West,267,2.0,4.0,53,0.00,,,0.00,weatherlink.com 1.10,2013-02-12 00:05:00,
2013-02-11 18:20:00,41.5,26.0,30.10,West,267,2.0,4.0,55,0.00,,,0.00,weatherlink.com 1.10,2013-02-12 00:20:00,
2013-02-11 18:35:00,41.1,26.0,30.10,West,267,1.0,4.0,56,0.00,,,0.00,weatherlink.com 1.10,2013-02-12 00:35:00,
2013-02-11 18:50:00,40.8,26.0,30.11,West,267,2.0,3.0,56,0.00,,,0.00,weatherlink.com 1.10,2013-02-12 00:50:00,
2013-02-11 19:06:00,40.2,26.0,30.11,West,267,1.0,3.0,57,0.00,,,0.00,weatherlink.com 1.10,2013-02-12 01:06:00,
2013-02-11 19:21:00,39.1,26.0,30.11,West,267,0.0,1.0,59,0.00,,,0.00,weatherlink.com 1.10,2013-02-12 01:21:00,
2013-02-11 19:36:00,37.6,25.0,30.11,West,267,1.0,2.0,62,0.00,,,0.00,weatherlink.com 1.10,2013-02-12 01:36:00,
2013-02-11 19:51:00,37.2,26.0,30.12,West,267,1.0,2.0,63,0.00,,,0.00,weatherlink.com 1.10,2013-02-12 01:51:00,
2013-02-11 20:06:00,37.7,26.0,30.12,West,267,1.0,3.0,62,0.00,,,0.00,weatherlink.com 1.10,2013-02-12 02:06:00,
2013-02-11 20:21:00,37.8,26.0,30.12,West,267,1.0,3.0,62,0.00,,,0.00,weatherlink.com 1.10,2013-02-12 02:21:00,
2013-02-11 20:36:00,37.5,25.0,30.12,West,267,2.0,3.0,62,0.00,,,0.00,weatherlink.com 1.10,2013-02-12 02:36:00,
2013-02-11 20:51:00,37.4,26.0,30.13,West,267,2.0,3.0,63,0.00,,,0.00,weatherlink.com 1.10,2013-02-12 02:51:00,
2013-02-11 21:06:00,37.1,25.0,30.13,West,267,1.0,2.0,63,0.00,,,0.00,weatherlink.com 1.10,2013-02-12 03:06:00,
2013-02-11 21:21:00,36.0,26.0,30.14,West,267,1.0,2.0,66,0.00,,,0.00,weatherlink.com 1.10,2013-02-12 03:21:00,
2013-02-11 21:36:00,35.7,25.0,30.14,West,267,1.0,4.0,66,0.00,,,0.00,weatherlink.com 1.10,2013-02-12 03:36:00,
2013-02-11 21:51:00,35.6,25.0,30.14,West,267,2.0,3.0,66,0.00,,,0.00,weatherlink.com 1.10,2013-02-12 03:51:00,
2013-02-11 22:06:00,35.2,25.0,30.15,West,267,0.0,2.0,67,0.00,,,0.00,weatherlink.com 1.10,2013-02-12 04:06:00,
2013-02-11 22:21:00,33.7,25.0,30.15,West,267,2.0,2.0,70,0.00,,,0.00,weatherlink.com 1.10,2013-02-12 04:21:00,
2013-02-11 22:36:00,33.8,25.0,30.15,West,267,2.0,3.0,71,0.00,,,0.00,weatherlink.com 1.10,2013-02-12 04:36:00,
2013-02-11 22:51:00,34.2,25.0,30.15,West,267,1.0,2.0,70,0.00,,,0.00,weatherlink.com 1.10,2013-02-12 04:51:00,
2013-02-11 23:06:00,33.3,25.0,30.15,West,267,1.0,2.0,72,0.00,,,0.00,weatherlink.com 1.10,2013-02-12 05:06:00,
2013-02-11 23:21:00,33.0,25.0,30.15,West,267,1.0,2.0,72,0.00,,,0.00,weatherlink.com 1.10,2013-02-12 05:21:00,
2013-02-11 23:36:00,32.5,25.0,30.15,West,267,2.0,3.0,74,0.00,,,0.00,weatherlink.com 1.10,2013-02-12 05:36:00,
2013-02-11 23:51:00,32.9,25.0,30.15,West,267,1.0,3.0,73,0.00,,,0.00,weatherlink.com 1.10,2013-02-12 05:51:00,